Home   Weather   Darwin   Past weeks
Flag for Australia

Past Weather in Darwin, Northern Territory, Australia — Yesterday and Last 2 Weeks

Now
90 °F

Sunny.


Feels Like: 90 °F
Forecast: 91 / 77 °F
Wind: 3 mph from Northeast

Location: Darwin Airport

Current Time: Oct 21, 2019 at 7:51:41 pm

Latest Report: Oct 21, 2019 at 7:00 pm


Visibility: 10 mi

Pressure: 29.80 "Hg

Humidity: 41%

Dew Point: 63 °F

Location of DarwinLocation

Past Weather in Darwin — Graph

°F

Darwin Temperature Yesterday

Maximum temperature yesterday: 95 °F (at 12:30 pm)
Minimum temperature yesterday: 75 °F (at 6:00 am)
Average temperature yesterday: 86 °F

High & Low Weather Summary for the Past Weeks

 TemperatureHumidityPressure
High100 °F (Oct 21, 12:30 pm)94% (Oct 12, 7:00 am)29.95 "Hg (Oct 12, 7:00 am)
Low72 °F (Oct 14, 5:30 am)12% (Oct 14, 5:00 pm)29.74 "Hg (Oct 12, 3:00 pm)
Average84 °F64%29.87 "Hg
* Reported Oct 6 6:30 pm — Oct 21 6:30 pm, Darwin. Weather by CustomWeather, © 2019

Note: Actual official high and low records may vary slightly from our data, if they occured in-between our weather recording intervals... More about our weather records

Advertising

Darwin Weather History for the Previous 24 Hours

Scroll right to see more
 ConditionsComfort  
Time TempWeatherWind HumidityBarometerVisibility
6:30 pm
Mon, Oct 21
90 °FSunny.8 mph41%29.77 "Hg10 mi
6:00 pm91 °FSunny.9 mph36%29.77 "Hg10 mi
5:30 pm91 °FSunny.13 mph38%29.77 "Hg10 mi
5:00 pm93 °FSunny.14 mph32%29.74 "Hg10 mi
4:30 pm93 °FSunny.17 mph34%29.77 "Hg10 mi
4:00 pm95 °FSunny.17 mph26%29.77 "Hg10 mi
3:30 pm95 °FSunny.15 mph28%29.77 "Hg10 mi
3:00 pm93 °FSunny.15 mph39%29.77 "Hg10 mi
2:30 pm91 °FSunny.14 mph46%29.80 "Hg10 mi
2:00 pm93 °FSunny.15 mph41%29.80 "Hg10 mi
1:00 pm93 °FSunny.17 mph39%29.83 "Hg10 mi
12:30 pm100 °FPassing clouds.14 mph15%29.86 "HgN/A
12:00 pm99 °FPassing clouds.14 mph16%29.86 "HgN/A
11:30 am97 °FDuststorm.20 mph19%29.89 "HgN/A
11:06 am97 °FSunny.17 mph22%29.89 "Hg10 mi
10:30 am91 °FPassing clouds.5 mph46%29.92 "HgN/A
9:30 am86 °FPassing clouds.8 mph66%29.92 "HgN/A
9:00 am84 °FPassing clouds.6 mph70%29.92 "HgN/A
8:30 am82 °FScattered clouds.7 mph79%29.92 "HgN/A
8:00 am82 °FPassing clouds.7 mph84%29.92 "HgN/A
7:30 am81 °FPassing clouds.7 mph89%29.92 "HgN/A
7:00 am79 °FPassing clouds.5 mph94%29.89 "HgN/A
6:30 am77 °FFog.2 mph94%29.89 "HgN/A
6:00 am77 °FFog.2 mph94%29.89 "HgN/A
5:30 am77 °FFog.1 mph94%29.89 "HgN/A
5:00 am77 °FClear.No wind94%29.86 "HgN/A
4:30 am79 °FClear.No wind89%29.86 "HgN/A
4:00 am79 °FClear.1 mph89%29.86 "HgN/A
3:30 am79 °FClear.2 mph89%29.86 "HgN/A
3:00 am79 °FClear.3 mph89%29.86 "HgN/A
2:30 am81 °FClear.2 mph84%29.86 "HgN/A
2:00 am82 °FClear.3 mph79%29.86 "HgN/A
1:30 am82 °FClear.3 mph84%29.89 "HgN/A
1:00 am82 °FClear.3 mph84%29.89 "HgN/A
12:30 am82 °FClear.3 mph84%29.89 "HgN/A
12:00 am82 °FPassing clouds.3 mph84%29.89 "HgN/A
11:30 pm
Sun, Oct 20
84 °FPassing clouds.5 mph79%29.92 "HgN/A
11:00 pm84 °FPassing clouds.5 mph79%29.92 "HgN/A
10:30 pm84 °FClear.5 mph79%29.92 "Hg10 mi
10:00 pm84 °FClear.8 mph79%29.89 "Hg10 mi
9:30 pm84 °FClear.8 mph74%29.89 "Hg10 mi
9:00 pm84 °FClear.8 mph74%29.89 "Hg10 mi
8:30 pm84 °FClear.10 mph74%29.86 "Hg10 mi
8:00 pm86 °FClear.13 mph66%29.86 "Hg10 mi
7:30 pm90 °FPassing clouds.13 mph43%29.83 "HgN/A
7:00 pm90 °FSunny.8 mph43%29.80 "Hg10 mi
Weather by CustomWeather, © 2019

See weather overview